KAR3478 VTSP-UUEE

Flight info

Callsign KAR3478
Flight time N/A
Altitude 34000
Route UPSAB L515 OBMOG M770 MEPEL/N0492F360 M770 KAKID M875 GUGAL/N0488F380 M875 LEBIB A466 SAJAN M875 AMDAR/K0891F380 M875 MILSO DCT ARISA/K0891F400 L736 OLOPI
Aircraft B772/H-SDE2E3FGHIJ5LORVWXY/LB1D1

Departure

Time 2026-05-07 22:03
Airport Phuket International Airport (VTSP)

Arrival

Time N/A
Airport Sheremetyevo International Airport (UUEE)
Time Latitude Longitude Altitude Speed Heading
2026-05-07 21:30 8.10653 98.30476 97 ft 0 kts 105°
2026-05-07 21:53 8.10655 98.30469 97 ft 2 kts 105°
2026-05-07 21:53 8.10659 98.30454 97 ft 2 kts 105°
2026-05-07 21:54 8.10663 98.30439 97 ft 2 kts 105°
2026-05-07 21:54 8.10667 98.30424 97 ft 2 kts 105°
2026-05-07 21:54 8.10670 98.30411 97 ft 2 kts 89°
2026-05-07 21:54 8.10666 98.30397 97 ft 2 kts 50°
2026-05-07 21:55 8.10653 98.30387 97 ft 2 kts 16°
2026-05-07 21:55 8.10638 98.30384 97 ft 2 kts 13°
2026-05-07 21:55 8.10630 98.30382 97 ft 0 kts 15°
2026-05-07 21:59 8.10634 98.30383 97 ft 1 kts 16°
2026-05-07 21:59 8.10655 98.30389 97 ft 4 kts 15°
2026-05-07 21:59 8.10697 98.30401 97 ft 7 kts 14°
2026-05-07 21:59 8.10760 98.30417 97 ft 10 kts 15°
2026-05-07 22:00 8.10839 98.30437 97 ft 13 kts 14°
2026-05-07 22:00 8.10934 98.30463 97 ft 15 kts 14°
2026-05-07 22:00 8.11011 98.30463 97 ft 10 kts 331°
2026-05-07 22:00 8.11035 98.30400 97 ft 10 kts 283°
2026-05-07 22:01 8.11083 98.30353 97 ft 8 kts 347°
2026-05-07 22:01 8.11088 98.30352 97 ft 2 kts 351°
2026-05-07 22:01 8.11131 98.30346 97 ft 10 kts 352°
2026-05-07 22:01 8.11198 98.30382 97 ft 12 kts 75°
2026-05-07 22:02 8.11201 98.30407 97 ft 0 kts 84°
2026-05-07 22:02 8.11202 98.30410 97 ft 2 kts 84°
2026-05-07 22:02 8.11209 98.30486 97 ft 28 kts 84°
2026-05-07 22:02 8.11251 98.30943 97 ft 102 kts 84°
2026-05-07 22:03 8.11339 98.31877 100 ft 163 kts 84°
2026-05-07 22:03 8.11459 98.33121 587 ft 180 kts 84°
2026-05-07 22:03 8.11571 98.34369 1285 ft 185 kts 84°
2026-05-07 22:03 8.11685 98.35632 1678 ft 185 kts 84°
2026-05-07 22:04 8.11820 98.36992 1742 ft 202 kts 84°
2026-05-07 22:04 8.11961 98.38464 1873 ft 220 kts 84°
2026-05-07 22:04 8.12111 98.40060 2126 ft 235 kts 84°
2026-05-07 22:04 8.12271 98.41769 2346 ft 251 kts 84°
2026-05-07 22:05 8.12442 98.43583 2614 ft 263 kts 84°
2026-05-07 22:05 8.12615 98.45431 3085 ft 266 kts 84°
2026-05-07 22:05 8.12790 98.47307 3564 ft 269 kts 84°
2026-05-07 22:05 8.12967 98.49189 4039 ft 271 kts 84°
2026-05-07 22:06 8.13143 98.51077 4506 ft 273 kts 84°
2026-05-07 22:06 8.13324 98.53003 4975 ft 275 kts 83°
2026-05-07 22:06 8.13502 98.54912 5430 ft 277 kts 83°
2026-05-07 22:06 8.13684 98.56858 5881 ft 279 kts 83°
2026-05-07 22:07 8.14123 98.58767 6270 ft 281 kts 62°
2026-05-07 22:07 8.15335 98.60284 6669 ft 280 kts 34°
2026-05-07 22:07 8.17096 98.61086 7100 ft 279 kts 10°
2026-05-07 22:07 8.18998 98.61320 7564 ft 278 kts
2026-05-07 22:08 8.20943 98.61414 8004 ft 280 kts
2026-05-07 22:08 8.22866 98.61481 8432 ft 282 kts
2026-05-07 22:08 8.24841 98.61549 8865 ft 283 kts
2026-05-07 22:08 8.26812 98.61619 9286 ft 285 kts
2026-05-07 22:09 8.28787 98.61689 9702 ft 287 kts
2026-05-07 22:09 8.30702 98.61757 10018 ft 292 kts
2026-05-07 22:09 8.32791 98.61732 10047 ft 306 kts 349°
2026-05-07 22:09 8.34797 98.60972 10249 ft 311 kts 326°
2026-05-07 22:10 8.36357 98.59472 10450 ft 318 kts 304°
2026-05-07 22:10 8.37424 98.57452 10459 ft 332 kts 294°
2026-05-07 22:10 8.38302 98.55267 10469 ft 345 kts 291°
2026-05-07 22:10 8.39178 98.52966 10479 ft 356 kts 291°
2026-05-07 22:11 8.40082 98.50592 10523 ft 366 kts 291°
2026-05-07 22:11 8.40995 98.48203 10746 ft 369 kts 291°
2026-05-07 22:11 8.41923 98.45775 11049 ft 370 kts 291°
2026-05-07 22:11 8.42858 98.43331 11368 ft 371 kts 291°
2026-05-07 22:12 8.43780 98.40924 11682 ft 372 kts 291°
2026-05-07 22:12 8.44721 98.38465 12014 ft 374 kts 291°
2026-05-07 22:12 8.45664 98.36000 12358 ft 376 kts 291°
2026-05-07 22:12 8.46598 98.33560 12706 ft 378 kts 291°
2026-05-07 22:13 8.47542 98.31092 13074 ft 380 kts 291°
2026-05-07 22:13 8.48501 98.28586 13463 ft 382 kts 291°
2026-05-07 22:13 8.49469 98.26057 13870 ft 384 kts 291°
2026-05-07 22:13 8.50439 98.23519 14299 ft 387 kts 291°
2026-05-07 22:14 8.51411 98.20976 14753 ft 389 kts 291°
2026-05-07 22:14 8.52399 98.18391 15233 ft 392 kts 290°
2026-05-07 22:14 8.53380 98.15823 15705 ft 394 kts 290°
2026-05-07 22:14 8.54430 98.13210 16158 ft 397 kts 295°
2026-05-07 22:15 8.55817 98.10776 16592 ft 401 kts 304°
2026-05-07 22:15 8.57575 98.08596 17024 ft 405 kts 313°
2026-05-07 22:15 8.59673 98.06717 17441 ft 410 kts 322°
2026-05-07 22:15 8.62079 98.05186 17857 ft 414 kts 330°
2026-05-07 22:16 8.64671 98.03868 18283 ft 417 kts 332°
2026-05-07 22:16 8.67269 98.02573 18704 ft 420 kts 332°
2026-05-07 22:16 8.69894 98.01262 19120 ft 423 kts 332°
2026-05-07 22:16 8.72576 97.99919 19540 ft 427 kts 332°
2026-05-07 22:17 8.75199 97.98604 19947 ft 429 kts 332°
2026-05-07 22:17 8.77915 97.97240 20366 ft 432 kts 332°
2026-05-07 22:17 8.80614 97.95884 20769 ft 435 kts 332°
2026-05-07 22:17 8.83303 97.94532 21163 ft 438 kts 332°
2026-05-07 22:18 8.86041 97.93154 21561 ft 441 kts 332°
2026-05-07 22:18 8.91579 97.90366 22348 ft 447 kts 332°
2026-05-07 22:18 8.94373 97.88959 22731 ft 450 kts 332°
2026-05-07 22:19 8.97187 97.87541 23117 ft 453 kts 332°
2026-05-07 22:19 9.00000 97.86124 23523 ft 455 kts 332°
2026-05-07 22:19 9.02828 97.84699 23941 ft 457 kts 332°
2026-05-07 22:19 9.05684 97.83257 24340 ft 459 kts 332°
2026-05-07 22:20 9.08556 97.81805 24730 ft 462 kts 332°
2026-05-07 22:20 9.11441 97.80349 25115 ft 464 kts 332°
2026-05-07 22:20 9.14331 97.78889 25472 ft 466 kts 332°
2026-05-07 22:20 9.17248 97.77415 25805 ft 469 kts 332°
2026-05-07 22:21 9.20198 97.75924 26129 ft 472 kts 332°
2026-05-07 22:21 9.23164 97.74425 26456 ft 475 kts 332°
2026-05-07 22:21 9.26100 97.72941 26777 ft 477 kts 332°
2026-05-07 22:21 9.29090 97.71429 27089 ft 479 kts 332°
2026-05-07 22:22 9.32088 97.69913 27399 ft 482 kts 333°
2026-05-07 22:22 9.35072 97.68403 27694 ft 484 kts 332°
2026-05-07 22:22 9.38108 97.66867 27987 ft 487 kts 333°
2026-05-07 22:22 9.41163 97.65321 28273 ft 489 kts 333°
2026-05-07 22:23 9.44225 97.63771 28556 ft 491 kts 333°
2026-05-07 22:23 9.47301 97.62214 28829 ft 493 kts 333°
2026-05-07 22:23 9.50386 97.60651 29102 ft 496 kts 333°
2026-05-07 22:23 9.53442 97.59104 29355 ft 498 kts 333°
2026-05-07 22:24 9.56551 97.57529 29611 ft 500 kts 333°
2026-05-07 22:24 9.59659 97.55955 29859 ft 502 kts 333°
2026-05-07 22:24 9.62800 97.54363 30131 ft 503 kts 333°
2026-05-07 22:24 9.65947 97.52768 30482 ft 503 kts 333°
2026-05-07 22:25 9.69073 97.51183 30872 ft 502 kts 333°
2026-05-07 22:25 9.72206 97.49595 31252 ft 500 kts 333°
2026-05-07 22:25 9.75315 97.48018 31611 ft 500 kts 333°
2026-05-07 22:25 9.78401 97.46452 31952 ft 499 kts 333°
2026-05-07 22:26 9.81519 97.44870 32298 ft 499 kts 333°
2026-05-07 22:26 9.84627 97.43293 32660 ft 498 kts 333°
2026-05-07 22:26 9.87727 97.41720 33026 ft 497 kts 333°
2026-05-07 22:26 9.90803 97.40157 33391 ft 496 kts 333°
2026-05-07 22:27 9.93913 97.38578 33752 ft 495 kts 333°
2026-05-07 22:27 9.97005 97.37008 33932 ft 497 kts 333°
2026-05-07 22:27 10.00081 97.35445 33941 ft 497 kts 333°
2026-05-07 22:28 10.06272 97.32327 33941 ft 495 kts 333°
2026-05-07 22:28 10.12417 97.29237 33939 ft 495 kts 333°
2026-05-07 22:29 10.18631 97.26111 33939 ft 496 kts 333°
2026-05-07 22:29 10.24789 97.23011 33939 ft 495 kts 333°
2026-05-07 22:30 10.30973 97.19897 33940 ft 495 kts 333°
2026-05-07 22:30 10.37158 97.16779 33940 ft 496 kts 333°
2026-05-07 22:31 10.43344 97.13661 33940 ft 497 kts 333°
2026-05-07 22:31 10.49543 97.10534 33940 ft 497 kts 334°
2026-05-07 22:32 10.55767 97.07394 33940 ft 498 kts 334°
2026-05-07 22:32 10.61989 97.04253 33941 ft 498 kts 334°
2026-05-07 22:33 10.68185 97.01123 33941 ft 498 kts 334°
2026-05-07 22:33 10.74409 96.97977 33941 ft 498 kts 334°
2026-05-07 22:34 10.80625 96.94836 33941 ft 497 kts 334°
2026-05-07 22:34 10.86813 96.91705 33942 ft 498 kts 334°
2026-05-07 22:35 10.93035 96.88557 33941 ft 498 kts 335°
2026-05-07 22:35 10.99236 96.85417 33941 ft 497 kts 336°
2026-05-07 22:36 11.05423 96.82283 33940 ft 493 kts 336°
2026-05-07 22:36 11.11574 96.79166 33942 ft 494 kts 336°
2026-05-07 22:37 11.17724 96.76049 33942 ft 494 kts 336°
2026-05-07 22:37 11.23902 96.72916 33942 ft 494 kts 336°
2026-05-07 22:38 11.30069 96.69786 33942 ft 494 kts 336°
2026-05-07 22:38 11.36187 96.66680 33943 ft 494 kts 336°
2026-05-07 22:39 11.42369 96.63540 33943 ft 494 kts 336°
2026-05-07 22:39 11.48532 96.60408 33943 ft 494 kts 336°
2026-05-07 22:40 11.54668 96.57288 33943 ft 493 kts 336°
2026-05-07 22:40 11.60800 96.54169 33943 ft 494 kts 336°
2026-05-07 22:41 11.66984 96.51022 33944 ft 494 kts 336°
2026-05-07 22:41 11.73136 96.47889 33943 ft 494 kts 336°
2026-05-07 22:42 11.79286 96.44756 33944 ft 494 kts 336°
2026-05-07 22:42 11.85415 96.41632 33944 ft 494 kts 336°
2026-05-07 22:43 11.91282 96.37914 33944 ft 499 kts 322°
2026-05-07 22:43 11.96296 96.32954 33938 ft 501 kts 317°
2026-05-07 22:44 12.01223 96.27899 33938 ft 501 kts 317°
2026-05-07 22:44 12.06125 96.22868 33938 ft 501 kts 317°
2026-05-07 22:44 12.08596 96.20333 34049 ft 494 kts 315°
2026-05-07 22:45 12.10986 96.17879 34067 ft 488 kts 315°
2026-05-07 22:45 12.15747 96.12988 34072 ft 485 kts 315°
2026-05-07 22:46 12.20504 96.08101 34072 ft 485 kts 315°
2026-05-07 22:46 12.25279 96.03192 34072 ft 485 kts 315°
2026-05-07 22:47 12.30040 95.98296 34072 ft 485 kts 315°
2026-05-07 22:47 12.34790 95.93407 34072 ft 485 kts 315°
2026-05-07 22:48 12.39542 95.88514 34072 ft 485 kts 315°
2026-05-07 22:48 12.44302 95.83611 34072 ft 485 kts 315°
2026-05-07 22:49 12.49069 95.78696 34072 ft 485 kts 315°
2026-05-07 22:49 12.53857 95.73759 34072 ft 485 kts 315°
2026-05-07 22:50 12.58580 95.68886 34072 ft 485 kts 315°
2026-05-07 22:50 12.63334 95.63977 34072 ft 485 kts 315°
2026-05-07 22:51 12.68090 95.59063 34072 ft 485 kts 315°
2026-05-07 22:51 12.72847 95.54147 34072 ft 485 kts 315°
2026-05-07 22:52 12.77595 95.49237 34072 ft 485 kts 315°
2026-05-07 22:52 12.82371 95.44295 34072 ft 485 kts 315°
2026-05-07 22:53 12.87089 95.39371 34072 ft 485 kts 314°
2026-05-07 22:53 12.91765 95.34392 34072 ft 485 kts 314°
2026-05-07 22:54 12.96443 95.29412 34072 ft 485 kts 314°
2026-05-07 22:54 13.01104 95.24451 34072 ft 485 kts 314°
2026-05-07 22:55 13.05784 95.19468 34072 ft 485 kts 314°
2026-05-07 22:55 13.10463 95.14484 34072 ft 485 kts 314°
2026-05-07 22:56 13.15158 95.09481 34072 ft 485 kts 314°
2026-05-07 22:56 13.19815 95.04516 34072 ft 485 kts 314°
2026-05-07 22:57 13.24520 94.99496 34072 ft 485 kts 314°
2026-05-07 22:57 13.29185 94.94517 34072 ft 485 kts 314°
2026-05-07 22:58 13.33856 94.89528 34072 ft 485 kts 314°
2026-05-07 22:58 13.38524 94.84538 34072 ft 485 kts 314°
2026-05-07 22:59 13.43203 94.79536 34072 ft 485 kts 314°
2026-05-07 22:59 13.47862 94.74551 34072 ft 485 kts 314°
2026-05-07 23:00 13.52542 94.69540 34072 ft 485 kts 314°
2026-05-07 23:00 13.57219 94.64529 34072 ft 485 kts 314°
2026-05-07 23:01 13.61902 94.59509 34072 ft 485 kts 314°
2026-05-07 23:01 13.66573 94.54501 34072 ft 485 kts 314°
2026-05-07 23:02 13.71225 94.49507 34072 ft 485 kts 314°
2026-05-07 23:02 13.75894 94.44493 34072 ft 485 kts 314°
2026-05-07 23:03 13.80552 94.39487 34072 ft 485 kts 314°
2026-05-07 23:03 13.85245 94.34441 34069 ft 485 kts 314°
2026-05-07 23:04 13.89897 94.29436 34072 ft 485 kts 314°
2026-05-07 23:04 13.94576 94.24399 34072 ft 485 kts 314°
2026-05-07 23:05 13.99232 94.19385 34072 ft 485 kts 314°
2026-05-07 23:05 14.03905 94.14347 34072 ft 485 kts 314°
2026-05-07 23:06 14.08572 94.09314 34072 ft 485 kts 314°
2026-05-07 23:06 14.13234 94.04282 34072 ft 485 kts 314°
2026-05-07 23:07 14.17865 93.99281 34072 ft 485 kts 314°
2026-05-07 23:07 14.22515 93.94256 34072 ft 485 kts 314°
2026-05-07 23:08 14.27172 93.89220 34072 ft 485 kts 314°
2026-05-07 23:08 14.31839 93.84171 34072 ft 485 kts 314°
2026-05-07 23:09 14.36475 93.79150 34072 ft 485 kts 314°
2026-05-07 23:09 14.41123 93.74115 34072 ft 485 kts 314°
2026-05-07 23:10 14.45789 93.69057 34072 ft 485 kts 314°
2026-05-07 23:10 14.50428 93.64024 34072 ft 485 kts 314°
2026-05-07 23:11 14.55100 93.58952 34072 ft 485 kts 314°
2026-05-07 23:11 14.59716 93.53938 34072 ft 485 kts 314°
2026-05-07 23:12 14.64358 93.48892 34072 ft 485 kts 314°
2026-05-07 23:12 14.69018 93.43824 34072 ft 485 kts 314°
2026-05-07 23:13 14.73650 93.38783 34072 ft 485 kts 314°
2026-05-07 23:13 14.78309 93.33708 34072 ft 485 kts 313°
2026-05-07 23:14 14.82969 93.28630 34072 ft 485 kts 313°
2026-05-07 23:14 14.87578 93.23604 34072 ft 485 kts 313°
2026-05-07 23:15 14.92226 93.18532 34072 ft 485 kts 313°
2026-05-07 23:15 14.96848 93.13485 34072 ft 485 kts 313°
2026-05-07 23:16 15.01495 93.08407 34072 ft 485 kts 313°
2026-05-07 23:16 15.06142 93.03325 34072 ft 485 kts 313°
2026-05-07 23:17 15.10751 92.98281 34072 ft 485 kts 313°
2026-05-07 23:17 15.15387 92.93205 34072 ft 485 kts 313°
2026-05-07 23:18 15.20003 92.88148 34072 ft 485 kts 313°
2026-05-07 23:18 15.24616 92.83089 34072 ft 485 kts 313°
2026-05-07 23:19 15.29254 92.78000 34072 ft 485 kts 313°
2026-05-07 23:19 15.33873 92.72929 34072 ft 485 kts 313°
2026-05-07 23:20 15.38521 92.67821 34072 ft 485 kts 313°
2026-05-07 23:20 15.43138 92.62745 34071 ft 485 kts 314°
2026-05-07 23:21 15.47899 92.57775 34072 ft 485 kts 315°
2026-05-07 23:21 15.52679 92.52830 34072 ft 484 kts 315°
2026-05-07 23:22 15.57415 92.47916 34072 ft 484 kts 315°
2026-05-07 23:22 15.62196 92.42947 34072 ft 484 kts 315°
2026-05-07 23:23 15.66956 92.37994 34072 ft 484 kts 315°
2026-05-07 23:23 15.71711 92.33040 34072 ft 484 kts 315°
2026-05-07 23:24 15.76470 92.28079 34072 ft 484 kts 315°
2026-05-07 23:24 15.81193 92.23151 34072 ft 484 kts 315°
2026-05-07 23:25 15.85960 92.18173 34072 ft 484 kts 315°
2026-05-07 23:25 15.90684 92.13236 34072 ft 484 kts 315°
2026-05-07 23:26 15.95437 92.08266 34072 ft 484 kts 315°
2026-05-07 23:26 16.00185 92.03297 34072 ft 484 kts 315°
2026-05-07 23:27 16.07305 91.95839 34072 ft 484 kts 315°
2026-05-07 23:27 16.12062 91.90852 34072 ft 484 kts 315°
2026-05-07 23:28 16.16787 91.85895 34072 ft 484 kts 315°
2026-05-07 23:28 16.21549 91.80895 34072 ft 484 kts 315°
2026-05-07 23:29 16.26266 91.75940 34072 ft 484 kts 315°
2026-05-07 23:29 16.31024 91.70937 34072 ft 484 kts 315°
2026-05-07 23:30 16.35748 91.65968 34072 ft 484 kts 315°
2026-05-07 23:30 16.40495 91.60969 34072 ft 484 kts 315°
2026-05-07 23:31 16.45224 91.55985 34072 ft 484 kts 315°
2026-05-07 23:31 16.49955 91.50997 34072 ft 484 kts 315°
2026-05-07 23:32 16.54688 91.46003 34072 ft 484 kts 315°
2026-05-07 23:32 16.59409 91.41017 34072 ft 484 kts 315°
2026-05-07 23:33 16.64140 91.36018 34072 ft 484 kts 315°
2026-05-07 23:33 16.68881 91.31003 34072 ft 484 kts 314°
2026-05-07 23:34 16.73625 91.25983 34072 ft 484 kts 314°
2026-05-07 23:34 16.78355 91.20972 34072 ft 484 kts 314°
2026-05-07 23:35 16.83051 91.15994 34072 ft 484 kts 314°
2026-05-07 23:35 16.87791 91.10967 34072 ft 484 kts 314°
2026-05-07 23:36 16.92499 91.05969 34072 ft 483 kts 314°
2026-05-07 23:36 16.97209 91.00964 34072 ft 483 kts 314°
2026-05-07 23:37 17.01892 90.95985 34072 ft 483 kts 314°
2026-05-07 23:37 17.06605 90.90971 34072 ft 483 kts 314°
2026-05-07 23:38 17.11323 90.85946 34072 ft 483 kts 314°
2026-05-07 23:38 17.16032 90.80929 34072 ft 483 kts 314°
2026-05-07 23:39 17.20736 90.75912 34072 ft 483 kts 314°
2026-05-07 23:39 17.25427 90.70905 34072 ft 483 kts 314°
2026-05-07 23:40 17.30152 90.65859 34072 ft 483 kts 314°
2026-05-07 23:40 17.34864 90.60821 34072 ft 483 kts 314°
2026-05-07 23:41 17.39582 90.55773 34072 ft 483 kts 314°
2026-05-07 23:41 17.44297 90.50802 34072 ft 484 kts 315°
2026-05-07 23:42 17.49079 90.45822 34072 ft 483 kts 315°
2026-05-07 23:42 17.53843 90.40852 34072 ft 483 kts 315°
2026-05-07 23:43 17.58603 90.35880 34072 ft 483 kts 315°
2026-05-07 23:43 17.63365 90.30900 34072 ft 483 kts 315°
2026-05-07 23:44 17.68116 90.25927 34072 ft 483 kts 315°
2026-05-07 23:44 17.72873 90.20942 34072 ft 483 kts 315°
2026-05-07 23:45 17.77628 90.15957 34072 ft 483 kts 315°
2026-05-07 23:45 17.82360 90.10991 34072 ft 483 kts 315°
2026-05-07 23:46 17.87151 90.05959 34072 ft 483 kts 315°
2026-05-07 23:46 17.91914 90.00952 34072 ft 483 kts 315°
2026-05-07 23:47 17.96645 89.95976 34072 ft 483 kts 315°
2026-05-07 23:47 18.01389 89.90981 34072 ft 483 kts 315°
2026-05-07 23:48 18.06150 89.85964 34072 ft 483 kts 315°
2026-05-07 23:48 18.10893 89.80962 34072 ft 483 kts 315°
2026-05-07 23:49 18.15626 89.75967 34072 ft 483 kts 315°
2026-05-07 23:49 18.20356 89.70970 34072 ft 483 kts 315°
2026-05-07 23:50 18.25107 89.65948 34072 ft 483 kts 315°
2026-05-07 23:50 18.29877 89.60901 34072 ft 483 kts 315°
2026-05-07 23:51 18.34622 89.55876 34072 ft 483 kts 315°
2026-05-07 23:51 18.39352 89.50864 34072 ft 483 kts 315°
2026-05-07 23:52 18.44064 89.45866 34072 ft 483 kts 315°
2026-05-07 23:52 18.48804 89.40834 34072 ft 483 kts 315°
2026-05-07 23:53 18.53529 89.35815 34072 ft 483 kts 315°
2026-05-07 23:53 18.58262 89.30781 34072 ft 483 kts 315°
2026-05-07 23:54 18.62992 89.25748 34072 ft 483 kts 315°
2026-05-07 23:54 18.67730 89.20702 34072 ft 483 kts 315°
2026-05-07 23:55 18.72436 89.15685 34072 ft 483 kts 315°
2026-05-07 23:55 18.77170 89.10635 34072 ft 483 kts 315°
2026-05-07 23:56 18.81894 89.05591 34072 ft 483 kts 315°
2026-05-07 23:56 18.86613 89.00547 34072 ft 483 kts 315°
2026-05-07 23:57 18.91317 88.95517 34072 ft 483 kts 315°
2026-05-07 23:57 18.96054 88.90445 34072 ft 483 kts 315°
2026-05-07 23:58 19.00774 88.85388 34072 ft 483 kts 315°
2026-05-07 23:58 19.05468 88.80355 34072 ft 483 kts 315°
2026-05-07 23:59 19.10183 88.75294 34072 ft 483 kts 315°
2026-05-07 23:59 19.14897 88.70230 34072 ft 483 kts 315°